Vancouver, WA
on Tuesday, January 8, 2013

Tuesday
Previous Day Next Day
Daily Summary
 ActualAverageRecord
Temperature
Mean Temperature °F 41°F  
Max Temperature 55°F 47°F 59°F (1933)
Min Temperature 44°F 35°F 8°F (1937)
Degree Days
Heating Degree Days 15    
Month to date heating degree days 218  
Since 1 July heating degree days 1766  
Cooling Degree Days 0    
Month to date cooling degree days 0  
Year to date cooling degree days 0  
Moisture
Dew Point 45°F   
Average Humidity 86    
Maximum Humidity 100    
Minimum Humidity 71    
Precipitation
Precipitation 0.11 in 0.19 in 1.13 in (1959)
Month to date precipitation 0.49 1.61  
Year to date precipitation 0.49 1.61  
Snow
Snow 0.00 in in in ()
Month to date snowfall 0.0  
Snow Depth 0.00 in   
Wind
Wind Speed 6 mph   
Max Wind Speed 15 mph   
Max Gust Speed 24 mph   
Visibility 8 miles   
Events Rain   

Key: T is trace of precipitation, MM is missing value
Source: NWS Daily Summary
Time(PST)TemperatureDew PointHumidity Pressure Visibility Wind DirectionWind SpeedGust SpeedPrecipitationEvents Conditions
12:53 AM 46.0°F 43.0°F 89% 30.21 in 10.0 miles Calm Calm - N/A   Overcast
1:53 AM 46.0°F 42.1°F 86% 30.21 in 10.0 miles Calm Calm - N/A   Overcast
2:53 AM 48.0°F 42.1°F 80% 30.19 in 10.0 miles Calm Calm - N/A   Overcast
3:53 AM 46.0°F 43.0°F 89% 30.17 in 10.0 miles Calm Calm - 0.00 in   Overcast
4:39 AM 44.6°F 42.8°F 93% 30.15 in 3.0 miles ESE 5.8 mph - 0.02 in Rain Light Rain
4:50 AM 44.6°F 44.6°F 100% 30.14 in 3.0 miles East 5.8 mph - 0.02 in Rain Light Rain
4:53 AM 45.0°F 44.1°F 97% 30.14 in 3.0 miles ESE 6.9 mph - 0.03 in Rain Light Rain
5:45 AM 44.6°F 44.6°F 100% 30.11 in 3.0 miles ESE 9.2 mph - 0.01 in Rain Light Rain
5:53 AM 45.0°F 44.1°F 97% 30.11 in 3.0 miles East 10.4 mph - 0.02 in Rain Light Rain
5:56 AM 44.6°F 42.8°F 93% 30.10 in 2.5 miles ESE 9.2 mph - 0.00 in Rain Light Rain
6:03 AM 44.6°F 44.6°F 100% 30.10 in 3.0 miles ESE 10.4 mph - 0.00 in Rain Light Rain
6:12 AM 44.6°F 44.6°F 100% 30.10 in 4.0 miles East 9.2 mph - 0.01 in Rain Light Rain
6:32 AM 44.6°F 44.6°F 100% 30.09 in 4.0 miles ESE 8.1 mph - 0.01 in Rain Light Rain
6:53 AM 45.0°F 44.1°F 97% 30.10 in 4.0 miles ESE 5.8 mph - 0.02 in Rain Light Rain
7:00 AM 44.6°F 44.6°F 100% 30.09 in 5.0 miles ESE 5.8 mph - 0.00 in Rain Light Rain
7:53 AM 48.9°F 46.9°F 93% 30.09 in 9.0 miles SSE 4.6 mph - 0.01 in   Overcast
8:49 AM 50.0°F 46.4°F 87% 30.10 in 5.0 miles South 10.4 mph 17.3 mph 0.01 in Rain Light Rain
8:53 AM 50.0°F 46.9°F 89% 30.11 in 7.0 miles South 8.1 mph 17.3 mph 0.01 in Rain Light Rain
9:53 AM 51.1°F 46.0°F 83% 30.11 in 10.0 miles South 11.5 mph 20.7 mph 0.01 in   Overcast
10:44 AM 51.8°F 46.4°F 82% 30.11 in 10.0 miles South 5.8 mph 16.1 mph 0.00 in Rain Light Rain
10:53 AM 52.0°F 46.9°F 83% 30.11 in 10.0 miles South 6.9 mph - 0.00 in Rain Light Rain
11:53 AM 52.0°F 46.9°F 83% 30.09 in 10.0 miles SSE 5.8 mph - 0.00 in Rain Light Rain
12:53 PM 53.1°F 48.0°F 83% 30.07 in 7.0 miles South 6.9 mph 17.3 mph 0.01 in Rain Light Rain
1:53 PM 54.0°F 46.9°F 77% 30.06 in 10.0 miles South 8.1 mph 16.1 mph 0.00 in   Overcast
2:53 PM 54.0°F 46.9°F 77% 30.04 in 10.0 miles SSE 8.1 mph - N/A   Overcast
3:53 PM 54.0°F 46.0°F 75% 30.03 in 10.0 miles South 8.1 mph - N/A   Overcast
4:53 PM 55.0°F 46.0°F 72% 30.02 in 10.0 miles South 11.5 mph 16.1 mph N/A   Overcast
5:53 PM 54.0°F 46.9°F 77% 30.01 in 10.0 miles South 8.1 mph - N/A   Overcast
6:53 PM 54.0°F 46.0°F 75% 29.99 in 10.0 miles Variable 5.8 mph - N/A   Overcast
7:05 PM 53.6°F 46.4°F 77% 29.98 in 10.0 miles South 5.8 mph - N/A   Overcast
7:53 PM 54.0°F 46.0°F 75% 29.97 in 10.0 miles SE 6.9 mph - N/A   Overcast
9:53 PM 52.0°F 45.0°F 77% 29.95 in 10.0 miles SE 9.2 mph - N/A   Overcast
10:53 PM 52.0°F 44.1°F 74% 29.93 in 10.0 miles SE 6.9 mph - N/A   Clear
11:53 PM 52.0°F 44.1°F 74% 29.91 in 10.0 miles SSE 6.9 mph - N/A   Clear
Moon Phase
Jan. 08 Jan. 11 Jan. 18 Jan. 26 Feb. 03
Sunrise:07:50 AM (PST) Moon Rise:04:28 AM (PST)1/8
Sunset:04:45 PM (PST) Moon Set:01:52 PM (PST)1/8

Copyright © 2014 The Weather Underground, Inc.